Simultaneous Nadir Overpasses (SNOs) Predictions

Prediction of SNOs between GOES-17 and TERRA Satellite Orbit:

Table of predicted SNOs for the next 14.0 days since TLE Epoch: 6/6/2025
Index Date Time (GOES-17) GOES-17 Lat,Lon TERRA Lat,Lon Distance(km) Time Diff (sec)
1 06/08/2025 04:17:37 -0.01,-104.38 0.06,-104.11 30.78 80
2 06/10/2025 16:20:38 0.00,-104.44 -0.06,-104.24 22.73 80
3 06/13/2025 04:21:06 -0.00,-104.37 0.02,-104.41 4.74 80
4 06/15/2025 16:18:46 0.00,-104.43 0.01,-104.53 11.87 80
5 06/18/2025 04:21:52 -0.01,-104.36 -0.05,-104.69 36.68 80
6 06/20/2025 04:00:03 -0.00,-104.36 0.92,-100.08 487.18 80
7 06/20/2025 16:19:31 0.00,-104.42 0.12,-104.81 45.09 80
